Pagrindinis puslapis
METAR-TAF:

METAR-TAF

Oro uostai :

Mikelis, Suomija

platuma: 61-44N, ilguma: 027-18E, Aukštis: 138 m

Dabartinis oras

Ataskaita buvo paskelbta 47 minutes, ne 07:20 UTC
Vėjas 8 kt iš Rytų/Šiaurės Rytų, svyruoja nuo Šiaurės/Šiaurės Rytų ir Rytų
Temperatūra 4°C
Drėgmė 65%
Slėgis 1010 hPa
Matomumas 10 km arba daugiau
nėra debesų žemiau 1500 m ir nėra kamuolinių lietaus debesų

METAR: EFMI 250720Z 07008KT 020V100 CAVOK 04/M02 Q1010

Laikas: 11:07 (08:07 UTC)


TAF: trūkstamas

Orai ataskaitas ir orų prognozės (METAR, TAF).

turimą stotys yra geltonos ir raudonos taškus žemėlapyje.

Perkelti pele per norėdami pamatyti stoties vardą.

Tada spustelėkite, norėdami matyti oro stebėjimo ir prognozės.

Norėdami pakeisti žemėlapį: spustelėkite ant žalios mygtukų su juodo kryžiaus žemyn,; žalią mygtuką su brūkšneliu, jei norite nutolinti; arba žalių rodyklių gretimoms žemėlapius.


METAR-TAF: